Location: West Cummington
(42.4920°N, 72.9680°W)
Time: 03:59:34
(UTC-04:00)

Daily predictions for brighter satellites

Satellite Brightness Start Highest point End
(mag) Time Altitude Azimuth Time Altitude Azimuth Time Altitude Azimuth
Cosmos 2315 Rocket 4.3 00:13:51 62° NNW 00:13:51 62° NNW 00:19:08 10° N
Cosmos 2333 Rocket 3.7 00:21:21 28° WNW 00:22:16 30° NW 00:27:18 10° N
Cosmos 2237 Rocket 3.4 00:26:24 35° WNW 00:26:24 35° WNW 00:31:37 10° N
ATLAS CENTAUR R/B 4.2 00:31:52 14° NNE 00:31:52 14° NNE 00:32:26 10° NNE
Cosmos 2278 Rocket 4.0 00:24:58 10° NW 00:27:48 23° WNW 00:27:48 23° WNW
ATLAS 2AS CENTAUR R/B 3.2 00:32:49 61° E 00:32:49 61° E 00:39:47 10° NE
CZ-2C R/B 3.6 00:36:22 10° N 00:40:15 47° N 00:40:15 47° N
Cosmos 2184 Rocket 4.4 00:39:58 10° N 00:45:12 62° N 00:45:12 62° N
ATLAS 3B R/B 2.8 01:00:10 10° NNW 01:06:04 66° N 01:06:04 66° N
Cosmos 1603 4.4 01:22:28 50° N 01:22:28 50° N 01:26:42 10° NNE
USA 238 DEB 3.8 01:16:55 10° NNW 01:23:52 75° NE 01:23:52 75° NE
USA 238 3.8 01:17:01 10° NNW 01:24:00 75° NE 01:24:00 75° NE
Cosmos 2154 Rocket 4.3 01:19:06 10° N 01:24:12 61° NNW 01:24:12 61° NNW
Cosmos 2369 Rocket 3.0 01:22:04 10° NNW 01:26:16 48° N 01:26:16 48° N
USA 215 3.3 01:33:56 10° NE 01:39:38 67° E 01:39:38 67° E
Cosmos 1943 Rocket 2.9 01:41:15 10° NNW 01:46:26 50° NE 01:46:26 50° NE
SL-16 R/B 4.1 01:46:54 20° WNW 01:47:31 21° NW 01:51:43 10° N
ATLAS CENTAUR R/B 4.2 02:08:06 12° NW 02:08:06 12° NW 02:09:28 10° NNW
Cosmos 2181 Rocket 4.2 02:08:48 63° NW 02:08:48 63° NW 02:14:45 10° N
SL-16 R/B 4.1 02:06:35 16° ESE 02:10:27 30° ENE 02:15:42 10° N
Cosmos 2218 Rocket 3.9 02:04:56 10° N 02:10:48 79° NNE 02:10:48 79° NNE
USA 267 3.9 02:06:45 10° ESE 02:13:03 54° NNE 02:19:24 10° NW
Cosmos 2366 rocket 3.9 02:08:43 10° N 02:14:57 82° ENE 02:14:57 82° ENE
NOSS 3-4 (A) 3.6 02:22:20 64° ESE 02:22:20 64° ESE 02:28:35 10° NE
NOSS 3-4 (C) 3.6 02:22:26 64° ESE 02:22:26 64° ESE 02:28:41 10° NE
Meteor 2-21 4.3 02:16:50 10° N 02:22:52 84° NE 02:22:52 84° NE
ATLAS 2AS CENTAUR R/B 4.1 02:20:13 28° W 02:23:22 37° NW 02:30:50 10° NNE
Cosmos 864 Rocket 4.4 02:18:52 10° N 02:25:13 88° W 02:25:13 88° W
SL-8 Rocket 4.2 02:21:03 10° NNW 02:26:20 55° WNW 02:26:20 55° WNW
Cosmos 1656 Rocket 4.3 02:23:58 10° NNW 02:29:13 49° ENE 02:30:32 40° ESE
IRS-P3 4.2 02:29:42 10° NNE 02:34:45 72° ENE 02:34:45 72° ENE
NOSS 3-2 (A) 3.9 02:29:02 10° NW 02:36:34 79° WSW 02:38:59 50° SSE
Cosmos 773 Rocket 4.4 02:40:19 55° NNW 02:40:19 55° NNW 02:44:48 10° NNE
Cosmos 1943 4.1 02:43:07 36° WNW 02:43:09 36° WNW 02:48:21 10° N
Cosmos 2112 Rocket 4.1 02:50:18 71° ESE 02:50:18 71° ESE 02:55:33 10° NNE
Aureole 1 Rocket 3.4 02:51:19 76° NNE 02:51:19 76° NNE 02:55:19 10° NNE
Nadezhda 3 Rocket 3.9 03:01:16 61° S 03:02:29 89° E 03:08:51 10° N
NPP 3.6 02:57:36 10° N 03:02:59 69° WNW 03:03:10 68° W
Lacrosse 5 rocket 2.9 03:05:58 31° ESE 03:05:58 31° ESE 03:09:52 10° ENE
Resurs 1-4 Rocket 2.5 03:02:10 10° NNE 03:07:22 57° E 03:08:31 47° SE
ERS-1 4.5 03:06:07 10° NNE 03:11:05 71° ESE 03:11:43 63° SSE
Cosmos 2369 Rocket 4.4 03:07:31 10° WNW 03:08:01 12° WNW 03:08:01 12° WNW
SL-08 R/B 4.0 03:12:21 41° NW 03:12:21 41° NW 03:15:51 10° NNW
Spot 4 Rocket 4.1 03:07:22 10° NNE 03:12:33 74° ESE 03:13:23 61° SSE
Cosmos 1544 3.9 03:10:08 10° N 03:13:06 49° NNE 03:13:06 49° NNE
Cosmos 1805 3.7 03:09:57 10° N 03:13:40 58° ENE 03:13:40 58° ENE
Cosmos 1271 Rocket 3.6 03:10:26 10° N 03:14:03 44° ENE 03:14:12 43° E
CZ-2D R/B 2.2 03:12:19 10° NNE 03:17:38 69° ESE 03:18:55 50° SSE
USA 161 4.3 03:17:36 14° E 03:18:38 17° ENE 03:20:36 10° NNE
Cosmos 2056 Rocket 3.9 03:13:39 10° NNW 03:18:58 61° ENE 03:23:16 15° SE
Cosmos 1812 Rocket 4.2 03:16:38 10° NNW 03:19:57 43° NW 03:19:57 43° NW
Cosmos 921 Rocket 3.9 03:18:09 10° N 03:22:31 49° ENE 03:25:38 18° SE
USA 215 4.2 03:17:11 10° NE 03:23:12 41° NNW 03:26:59 21° W
Cosmos 1680 Rocket 3.8 03:23:12 49° W 03:23:40 51° WNW 03:28:49 10° N
CBERS-1 4.3 03:18:54 10° N 03:23:48 47° WNW 03:24:07 47° W
RESURS DK-1 2.5 03:25:43 62° NW 03:25:43 62° NW 03:29:34 10° NNE
COSMOS 2455 2.8 03:21:31 10° NW 03:27:28 61° WSW 03:29:08 44° S
Cosmos 1842 3.5 03:28:16 58° NNW 03:28:16 58° NNW 03:31:35 10° N
ADEOS 3.5 03:24:33 10° NNE 03:29:48 88° ESE 03:31:11 51° SSW
Cosmos 1943 Rocket 3.8 03:25:44 10° NW 03:27:55 19° WNW 03:27:55 19° WNW
Meteor 1-4 Rocket 4.3 03:29:58 10° NNW 03:31:48 24° NW 03:31:48 24° NW
Cosmos 1953 Rocket 3.7 03:35:11 50° SSE 03:36:13 73° E 03:40:41 10° NNE
Cosmos 192 4.4 03:35:33 55° WSW 03:36:15 62° WNW 03:41:09 10° NNE
IRS-1D 3.5 03:31:44 10° N 03:36:57 77° WNW 03:38:24 48° SSW
COSMOS 2406 3.3 03:35:40 47° SW 03:37:12 66° WNW 03:42:57 10° NNE
NOSS 2-2 (E) 3.6 03:36:50 57° SSE 03:37:24 65° ESE 03:42:03 10° NE
SL-27 R/B 2.7 03:43:36 58° NW 03:43:36 58° NW 03:46:53 10° NNE
MOZ.5/SAFIR/RUBIN 5/SL-8 4.1 03:40:23 16° SSE 03:44:04 65° ENE 03:48:43 10° N
NOSS 3-2 (C) 4.4 03:39:22 10° NW 03:46:21 40° WSW 03:50:12 26° SSW
ARIANE 5 R/B 2.6 03:42:56 10° N 03:48:08 65° WNW 03:49:48 42° SW
Cosmos 1821 Rocket 4.0 03:42:43 10° NNW 03:48:42 58° W 03:51:18 33° SSW
CZ-2D R/B 3.8 03:44:52 10° NNE 03:48:54 59° E 03:50:23 35° SSE
COBE Rocket 3.9 03:46:15 10° N 03:51:19 73° WNW 03:53:04 40° SSW
SL-16 R/B 2.8 03:51:39 34° SSW 03:53:49 47° W 03:59:46 10° NNW
Cosmos 1452 Rocket 4.3 03:48:50 10° N 03:53:58 51° ENE 03:59:05 10° SE
Cosmos 1371 Rocket 4.2 03:49:27 10° NNW 03:54:39 50° WSW 03:56:34 34° SSW
Cosmos 1707 3.7 03:52:34 22° SSE 03:54:41 44° E 03:58:24 10° NNE
USA 267 3.3 03:49:46 10° SSE 03:56:05 51° SW 04:02:25 10° WNW
ADEOS Rocket 3.2 03:50:52 10° N 03:56:46 61° WNW 04:00:01 30° SW
CENTAUR R/B 3.1 03:49:38 10° NW 03:57:34 84° WSW 04:06:01 10° SSE
Cosmos 1825 Rocket 3.9 03:58:07 41° WSW 03:58:49 45° WNW 04:03:03 10° N
Cosmos 1470 2.8 03:57:21 10° N 04:01:16 80° E 04:03:45 22° SSE
Cosmos 1953 2.5 03:58:37 10° NNW 04:02:29 48° W 04:02:57 46° WSW
GEOS 3 Rocket 4.0 03:58:20 10° NNE 04:03:27 52° NW 04:05:55 29° WSW
Cosmos 1605 Rocket 3.9 04:03:08 10° N 04:09:21 75° W 04:15:26 10° S
Cosmos 1818 3.5 04:07:00 30° SW 04:09:46 87° NW 04:15:16 10° NNE
Cosmos 1934 Rocket 4.2 04:04:42 10° NNW 04:10:45 51° W 04:14:55 20° SSW
COSMOS 2487 3.2 04:09:56 23° S 04:11:48 49° ESE 04:15:16 10° NNE
Okean O Rocket 3.2 04:08:40 10° NNE 04:12:42 33° E 04:16:41 10° SSE
NOSS 2-2 (D) 3.5 04:11:50 36° WSW 04:13:23 68° NW 04:18:05 10° NNE
ADEOS II 3.5 04:08:35 10° NNE 04:13:27 36° E 04:18:15 10° SSE
Cosmos 1378 3.9 04:11:26 15° SSE 04:14:22 50° E 04:18:00 10° NNE
UNKNOWN OBJECT B 3.0 04:10:41 10° N 04:14:36 55° WNW 04:16:04 34° SW
Cosmos 839 Rocket 4.1 04:08:52 10° NW 04:15:13 80° WSW 04:22:42 10° SSE
Cosmos 1339 Rocket 4.4 04:10:43 14° S 04:15:57 89° E 04:22:06 10° N
Cosmos 1758 4.3 04:15:22 10° NNW 04:18:53 28° W 04:19:11 28° W
NOSS 2-2 (C) 4.1 04:29:42 24° WSW 04:31:52 46° NW 04:36:28 10° NNE
Tiangong 1 0.8 04:33:00 34° WSW 04:33:57 56° SSW 04:36:44 10° ESE
PSLV R/B 4.1 04:31:14 10° NNE 04:35:20 75° ESE 04:39:29 10° S
Abrixas 4.5 04:34:06 10° NW 04:36:25 23° N 04:38:45 10° ENE
Cosmos 1733 3.9 04:35:49 10° NNW 04:39:16 33° W 04:41:23 19° SW
Cosmos 2100 Rocket 4.1 04:34:15 10° N 04:40:29 83° E 04:46:38 10° S
Cosmos 2098 Rocket 3.0 04:38:32 10° NNW 04:41:07 27° W 04:41:45 25° WSW
Cosmos 1697 Rocket 3.4 04:37:13 10° NNW 04:42:46 57° ENE 04:48:16 10° SE
Lacrosse 5 rocket 2.2 04:41:40 18° WSW 04:44:54 46° NW 04:49:24 10° NE
MOS 1 Rocket 3.5 04:41:54 10° N 04:46:03 45° WNW 04:49:34 14° SW
Resurs 1-4 Rocket 3.6 04:43:01 10° NNW 04:46:46 20° WNW 04:49:36 13° W
Cosmos 389 Rocket 3.4 04:43:37 10° NNW 04:46:49 29° W 04:49:03 16° SW
Delta 2 Rocket 4.1 04:45:43 19° SW 04:46:58 24° S 04:49:44 10° SE
Cosmos 2278 3.7 04:41:21 10° NNW 04:47:02 67° WSW 04:52:41 10° SSE
Cosmos 2173 Rocket 4.1 04:41:28 10° N 04:47:48 86° E 04:54:01 10° S
USA 161 3.0 04:48:14 19° W 04:48:22 19° W 04:50:33 10° NW
Cosmos 1842 Rocket 3.5 04:45:47 10° NNW 04:50:11 74° W 04:54:35 10° S
Cosmos-2242 3.9 04:47:42 10° NNW 04:51:33 30° W 04:55:20 10° SSW
CZ-4B R/B 3.1 04:48:23 10° NNE 04:52:42 88° WNW 04:57:10 10° SSW
Cosmos 2369 3.8 04:48:53 10° NNW 04:54:31 59° WSW 05:00:07 10° S
CZ-2D R/B 3.8 04:53:48 10° NNW 04:57:06 17° WNW 05:00:15 10° W
PSLV R/B 3.7 04:53:46 10° NNE 04:58:10 80° ESE 05:02:30 10° S
Meteor 2-5 Rocket 4.0 04:53:10 10° SSW 04:58:43 54° WNW 05:04:26 10° N
EO 1 Del DPAF 3.4 04:55:50 10° SSE 04:59:41 78° ENE 05:03:33 10° N
MTI 3.9 04:58:59 10° SSE 05:02:13 78° ENE 05:05:28 10° N
Cosmos 2061 Rocket 4.0 04:58:51 10° N 05:05:05 75° W 05:11:15 10° S
Cosmos 2221 2.8 05:06:54 10° N 05:11:11 74° E 05:15:26 10° SSE
Cosmos 2082 Rocket 2.3 05:09:28 10° SSW 05:15:09 68° WNW 05:20:51 10° NNE
Cosmos 1833 Rocket 2.7 05:10:47 10° SSW 05:16:22 72° WNW 05:22:00 10° NNE
Cosmos 1980 Rocket 2.8 05:10:47 10° NNW 05:16:28 64° ENE 05:22:05 10° SE
DNEPR-1 R/B 4.4 05:13:15 10° WNW 05:16:51 27° WSW 05:20:39 10° S
Cosmos 1674 4.2 05:13:18 10° SSE 05:16:52 40° E 05:20:28 10° NNE
Meteor 2-1 Rocket 4.2 05:12:09 10° NNW 05:17:46 70° W 05:23:28 10° S
Cosmos 1656 3.8 05:14:44 10° NW 05:19:59 51° WSW 05:25:13 10° S
CZ-4B R/B 3.2 05:16:34 10° N 05:21:54 65° WNW 05:27:09 10° SSW
Cosmos 158 Rocket 4.0 05:17:00 10° SSW 05:21:57 66° WNW 05:27:06 10° NNE
PAYLOAD B 4.4 05:16:31 10° N 05:22:01 60° WNW 05:27:27 10° SSW
Okean-O 3.6 05:19:48 10° NNE 05:24:09 52° E 05:28:28 10° S
Orbus 7S? 3.2 05:22:00 10° WNW 05:24:40 32° SW 05:27:04 10° SSE
Cosmos 2123 Rocket 4.2 05:18:30 10° S 05:24:49 85° E 05:31:09 10° N
CZ-2C R/B 3.7 05:20:45 10° S 05:25:06 58° WSW 05:29:32 10° NNW
Cosmos 2016 Rocket 4.0 05:19:19 10° NNW 05:25:31 68° W 05:31:46 10° S
